星链-5643 (STARLINK-5643 )

导读

STARLINK-5643是美国SpaceX公司星链(Starlink)卫星互联网星座的一员,于2023年1月31日发射升空,属于星链第二代组网卫星。它运行在近地轨道,配备相控阵天线与氪离子推进系统,可提供高速低延迟的宽带互联网服务,助力星链实现全球覆盖,支持偏远地区联网、移动网络补盲等应用,是全球规模最大低轨卫星星座的重要组成部分。

Basic Information
目录编号:
55431
目录名称:
STARLINK-5643
国际标识:
2023-014AS
轨道中心:
EARTH
卫星名称:
星链-5643
卫星全名:
星链-5643 (STARLINK-5643 )
卫星状态:
在轨 (已飞行1231 天)
发射日期:
2023-01-31 UTC
国别 :
美国 (US)
星等 :
--
Orbit Information
数据来源 国际轨道数据 AOE轨道数据
星历时间 2026-06-15T03:05:00+0800
8小时前
查看轨道信息
2026-06-14T10:00:00+0800
1天前
查看轨道信息
半长轴 6950.192km 6950.185km
偏心率 0.0003616 0.0003714
轨道倾角 69.999° 69.997°
近地点辐角 269.798° 271.971°
升交点赤经 199.777° 201.572°
平近点角 90.276° 209.757°
近地点 569.541km 569.466km
远地点 574.569km 574.63km
周期 96.107分钟 96.107分钟
每日圈数 14.983303 14.983328
Detailed Information
固有亮度:
5
最大亮度:
2.5
卫星平台:
Starlink v1.5
覆盖范围:
全球
运营商:
太空探索技术公司
运营商所在国:
美国
制造商(研发单位):
太空探索技术公司
制造商所在国:
美国
使用方式:
暂无
Satellite Introduction
星链(Starlink)计划是由太空探索技术公司(SpaceX)提出的一个巨型低轨卫星互联网星座项目,计划在2019年至2024年间在太空搭建由约1.2万颗卫星组成的“星链”网络,其中1584颗将部署在地球上空550千米处的近地轨道,并从2020年开始工作。该卫星仍在工作。
2D Orbit Map
3D Orbit Map
Orbit Altitude Analysis Chart
Orbit Inclination Analysis Chart
Orbit Comprehensive Analysis Chart
View Comprehensive Chart